Location: Stull Observatory
(42.2506°N, 77.7903°W)
Time: 18:04:27
(UTC-04:00)

ISS - All Passes

Search period start: 25 October 2014 00:00
Search period end: 03 November 2014 23:00
Orbit: 412 x 416 km, 51.6° (Epoch: 25 October)

Date Brightness Start Highest point End Pass type
(mag) Time Alt. Az. Time Alt. Az. Time Alt. Az.
25 Oct - 12:22:30 10° S 12:25:11 23° SE 12:27:53 10° E daylight
25 Oct - 13:58:28 10° WSW 14:01:42 47° NNW 14:04:57 10° NE daylight
25 Oct - 15:36:37 10° NW 15:38:59 18° N 15:41:22 10° NE daylight
25 Oct - 17:14:07 10° NW 17:16:36 19° NNE 17:19:04 10° ENE daylight
25 Oct - 18:50:30 10° NW 18:53:49 57° NNE 18:57:07 10° ESE visible
25 Oct - 20:27:51 10° W 20:30:14 18° SW 20:32:35 10° S visible
26 Oct - 11:34:31 10° SSE 11:36:11 13° SE 11:37:51 10° E daylight
26 Oct - 13:09:08 10° WSW 13:12:27 77° NNW 13:15:48 10° NE daylight
26 Oct - 14:46:58 10° WNW 14:49:34 21° NNW 14:52:11 10° NE daylight
26 Oct - 16:24:53 10° NW 16:27:09 17° N 16:29:26 10° NE daylight
26 Oct - 18:01:23 10° NW 18:04:32 37° NNE 18:07:40 10° E daylight
26 Oct - 19:38:10 10° WNW 19:41:11 31° SW 19:44:10 10° SSE visible
27 Oct - 12:19:58 10° SW 12:23:15 62° SE 12:26:33 10° ENE daylight
27 Oct - 13:57:18 10° W 14:00:09 26° NNW 14:03:01 10° NE daylight
27 Oct - 15:35:29 10° NW 15:37:40 16° N 15:39:52 10° NE daylight
27 Oct - 17:12:15 10° NW 17:15:10 27° NNE 17:18:05 10° E daylight
27 Oct - 18:48:45 10° WNW 18:52:02 56° SW 18:55:18 10° SE visible
28 Oct - 11:31:02 10° SSW 11:34:04 34° SE 11:37:08 10° ENE daylight
28 Oct - 13:07:39 10° W 13:10:45 35° NNW 13:13:51 10° NE daylight
28 Oct - 14:45:54 10° NW 14:48:09 17° N 14:50:24 10° NE daylight
28 Oct - 16:23:04 10° NW 16:25:43 21° NNE 16:28:22 10° ENE daylight
28 Oct - 17:59:27 10° NW 18:02:48 84° NE 18:06:08 10° ESE daylight
28 Oct - 19:37:40 10° WSW 19:39:02 12° SW 19:40:22 10° SSW visible
29 Oct - 10:42:27 10° S 10:44:56 20° SE 10:47:26 10° E daylight
29 Oct - 12:18:07 10° WSW 12:21:22 53° NNW 12:24:39 10° NE daylight
29 Oct - 13:56:12 10° WNW 13:58:37 18° N 14:01:02 10° NE daylight
29 Oct - 15:33:48 10° NW 15:36:13 18° N 15:38:37 10° NE daylight
29 Oct - 17:10:12 10° NW 17:13:28 51° NNE 17:16:43 10° ESE daylight
29 Oct - 18:47:21 10° W 18:49:56 21° SW 18:52:30 10° S visible
30 Oct - 09:54:43 10° SSE 09:55:49 11° SE 09:56:56 10° ESE daylight
30 Oct - 11:28:42 10° SW 11:32:01 88° NW 11:35:22 10° NE daylight
30 Oct - 13:06:24 10° WNW 13:09:04 22° NNW 13:11:45 10° NE daylight
30 Oct - 14:44:24 10° NW 14:46:38 17° N 14:48:52 10° NE daylight
30 Oct - 16:20:57 10° NW 16:24:03 34° NNE 16:27:07 10° E daylight
30 Oct - 17:57:38 10° WNW 18:00:44 36° SW 18:03:49 10° SSE daylight
31 Oct - 10:39:28 10° SW 10:42:42 52° SE 10:45:58 10° ENE daylight
31 Oct - 12:16:37 10° W 12:19:32 28° NNW 12:22:28 10° NE daylight
31 Oct - 13:54:50 10° NW 13:57:01 16° N 13:59:12 10° NE daylight
31 Oct - 15:31:42 10° NW 15:34:32 25° NNE 15:37:22 10° ENE daylight
31 Oct - 17:08:08 10° WNW 17:11:27 65° SW 17:14:45 10° SE daylight
01 Nov - 09:50:30 10° SSW 09:53:25 29° SE 09:56:22 10° ENE daylight
01 Nov - 11:26:53 10° W 11:30:01 38° NNW 11:33:11 10° NE daylight
01 Nov - 13:05:06 10° NW 13:07:23 17° N 13:09:39 10° NE daylight
01 Nov - 14:42:23 10° NW 14:44:57 20° NNE 14:47:32 10° ENE daylight
01 Nov - 16:18:44 10° NW 16:22:04 73° NNE 16:25:23 10° ESE daylight
01 Nov - 17:56:32 10° W 17:58:21 14° SW 18:00:10 10° SSW daylight
02 Nov - 08:01:56 10° S 08:04:10 17° SE 08:06:25 10° E daylight
02 Nov - 09:37:15 10° WSW 09:40:32 60° NNW 09:43:50 10° NE daylight
02 Nov - 11:15:14 10° WNW 11:17:43 19° NNW 11:20:12 10° NE daylight
02 Nov - 12:52:58 10° NW 12:55:18 18° N 12:57:39 10° NE daylight
02 Nov - 14:29:22 10° NW 14:32:36 45° NNE 14:35:48 10° ESE daylight
02 Nov - 16:06:21 10° W 16:09:07 24° SW 16:11:52 10° S daylight
03 Nov - 08:47:46 10° SW 08:51:05 80° SE 08:54:25 10° ENE daylight
03 Nov - 10:25:20 10° WNW 10:28:04 23° NNW 10:30:48 10° NE daylight
03 Nov - 12:03:24 10° NW 12:05:36 16° N 12:07:48 10° NE daylight
03 Nov - 13:40:01 10° NW 13:43:02 31° NNE 13:46:02 10° E daylight
03 Nov - 15:16:36 10° WNW 15:19:47 42° SW 15:22:56 10° SSE daylight
